Regional Weather Roundup
Issued by NWS Charleston, SC

Home | Current Version | Previous Version | Text Only | Print | Product List | Glossary On
Versions: 1 2 3 4 5 6 7 8 9 10 11 12 13 14 15 16 17 18 19 20 21 22 23 24 25 26 27 28 29 30 31 32 33 34 35 36 37 38 39 40 41 42 43 44 45 46 47 48 49 50
000
ASUS42 KCHS 220427
RWRCHS

REGIONAL WEATHER ROUNDUP
NATIONAL WEATHER SERVICE CHARLESTON SC
1100 PM EST TUE NOV 21 2017

NOTE: "FAIR" INDICATES FEW OR NO CLOUDS BELOW 12,000 FEET WITH NO
SIGNIFICANT WEATHER AND/OR OBSTRUCTIONS TO VISIBILITY.

NOT ALL STATIONS ARE QUALITY CONTROLLED. USE DATA WITH CAUTION...
ESPECIALLY DEWPOINT OBSERVATIONS.

SCZ027-030-031-034>040-042>050-220500-
...SOUTHEAST SOUTH CAROLINA...

CITY           SKY/WX    TMP DP  RH WIND       PRES   REMARKS
N CHARLESTON   LGT RAIN  61  61 100 CALM      29.99F
WATERFRONT PRK NOT AVBL
JOHNS ISLAND   LGT RAIN  63  63 100 CALM      30.00S
PINOPOLIS      NOT AVBL
MONCKS CORNER  LGT RAIN  59  57  94 CALM      29.99S
SUMMERVILLE    DRIZZLE   59  59 100 CALM      30.00S
BEAUFORT MCAS  CLOUDY    62  62 100 CALM      30.00  FOG
BEAUFORT ARPT  DRIZZLE   61  61 100 S7        29.99F
HILTON HEAD IS DRIZZLE   63  63 100 S7        30.01F
WALTERBORO     CLOUDY    59  59 100 CALM      30.00F FOG
ALLENDALE      MOCLDY    59  59 100 CALM      29.99F

...SOUTHERN MIDLANDS AND PEE DEE...

CITY           SKY/WX    TMP DP  RH WIND       PRES   REMARKS
GEORGETOWN     MOCLDY    61  59  94 SE5       30.00S
KINGSTREE      HVY RAIN  59  57  94 SE6       30.00S
ORANGEBURG     HVY RAIN  58  56  93 NW7       30.00S FOG
BARNWELL         N/A     57  57 100 CALM      30.01S
AIKEN          FAIR      54  54 100 N3        30.04F FOG
MANNING        RAIN      59  52  77 MISG      29.99F
COLUMBIA       RAIN      58  58 100 CALM      30.01F FOG
SUMTER         LGT RAIN  57  55  92 W5        29.98S
FLORENCE       LGT RAIN  58  55  90 E5        29.99F
MYRTLE BEACH   LGT RAIN  62  60  93 E12       29.99F
N MYRTLE BEACH RAIN      60  59  96 NE3       30.00F FOG

$$

GAZ063-065-086>088-099>101-113>116-118-119-134>141-150-220500-
...SOUTHEAST GEORGIA...

CITY           SKY/WX    TMP DP  RH WIND       PRES   REMARKS
SAVANNAH ARPT  CLOUDY    62  62 100 CALM      29.99F
HUNTER AAF     MOCLDY    63  61  94 E7        29.96F
FORT STEWART   CLOUDY    61  59  94 CALM      29.96F
STATESBORO     FOG       59  59 100 CALM      30.00S VSB 1/4
SYLVANIA       CLOUDY    58  58 100 CALM      30.01S FOG
CLAXTON        FOG       60  60  99 CALM      30.00S VSB 1/4

...CSRA...CENTRAL AND FAR SOUTHEAST GEORGIA...

CITY           SKY/WX    TMP DP  RH WIND       PRES   REMARKS
THOMSON        FOG       49  49  98 CALM      30.07F VSB 1/2
AUGUSTA-BUSH   FOG       52  52 100 CALM      30.01F VSB 1/4
AUGUSTA-DANIEL FOG       57  56  96 N5        30.02F VSB 3/4
SWAINSBORO     CLOUDY    57  57 100 E3        30.02R FOG
VIDALIA        CLOUDY    59  59 100 CALM      30.00S
EASTMAN        FAIR      56  50  80 CALM      30.02S HAZE
HAZLEHURST     FOG       59  57  94 CALM      29.99S VSB 1/2
ALMA           MOCLDY    61  60  97 N3        29.99R FOG
WAYCROSS       FOG       61  58  91 CALM      29.99R VSB 3/4
JESUP          FOG       64  61  88 CALM      29.99S VSB 3/4
BAXLEY         FOG       59  59 100 CALM      29.99F VSB 3/4
BRUNSWICK      LGT RAIN  59  55  88 CALM      29.98F
SAINT SIMONS   LGT RAIN  60  58  92 E6        29.99F

$$

SCZ027-028-034-036>038-045-046-048>050-GAZ119-141-220500-
...LAKE AND SUPPLEMENTAL COASTAL OBSERVATIONS...

STATION/POSITION TIME  TEMP    WIND        PRES    WAVE   SWELL
                       AIR SEA DIR/SP/G            HT/PER HT/PER/DIR
                 (UTC) (F)     (DEG/KT/KT) (MB)    (FT/S) (FT/S/D)
WINYAH BAY       0345   62     100/  3     1015.0F
LAKE MURRAY      0420   56      10/  3/  5 1015.6
ACE BASIN NERRS  0345   61        CALM     1016.0S
FORT PULASKI     0400   62 61  200/  4/  5 1016.5
SAPELO ISLAND    0400   62     110/  2     1015.0

$$

ANZ835-935-AMZ111-154-330-350-352-354-370-450-454-472-220500-
...C-MAN AND BUOY OBSERVATIONS...

STATION/POSITION TIME  TEMP    WIND        PRES    WAVE   SWELL
                       AIR SEA DIR/SP/G            HT/PER HT/PER/DIR
                 (UTC) (F)     (DEG/KT/KT) (MB)    (FT/S) (FT/S/D)
BUOY 41004       0410   70 74  290/ 12/ 16 1014.4
BUOY 41008       NOT AVBL
FOLLY BEACH CMAN 0400   63     190/  5/  6 1016.4R
CAPERS NEARSHORE 0408   61 62  220/  6/ 12 1015.4S
FRIPP NEARSHORE  0408   61 62  180/ 10/ 19 1019.8R


STATION/POSITION TIME  TEMP    WIND        PRES    WAVE   SWELL
                       AIR SEA DIR/SP/G            HT/PER HT/PER/DIR
                 (UTC) (F)     (DEG/KT/KT) (MB)    (FT/S) (FT/S/D)
5E ST. MARYS GA  0400      67                N/A     4/ 7
FRYING PAN BUOY  0410   69 72  190/  8/ 14 1014.9
BUOY 41025       0410   73 75  140/ 17/ 23 1017.0
CAPE LOOKOUT NC  0400           90/  5/  5 1016.5F
BUOY 41002       0350   71 76  130/ 19/ 25 1016.4F   8/ 7   2/ 70/11
BUOY 41010       NOT AVBL
ST AUGUSTINE FL  0400   63 69  340/ 13/ 16 1015.5F


$$




USA.gov is the U.S. government's official web portal to all federal, state and local government web resources and services.